Location: Brighton Point
(40.6144°N, 111.7933°W)
Time: 13:57:19
(UTC+00:00)

Hubble Space Telescope - Pass Details

Date: 10 March 2021
Orbit: 535 x 539 km, 28.5° (Epoch: 10 April)

Event Time Altitude Azimuth Distance (km) Brightness Sun altitude
Rises 03:37:31 0° 245° (WSW) 2,665 5.0 -25.1°
Reaches altitude 10° 03:40:56 10° 216° (SW) 1,774 3.6 -25.7°
Enters shadow 03:41:27 11° 209° (SSW) 1,699 3.4 -25.8°
